Hutchinson, MN

4:52 PM CDT on March 25, 2017 (GMT -0500)
Hutchinson Municipal-Butler

Weather History for KHCD - October, 2011

Change the Weather History Date:

Tuesday, October 25, 2011

  Actual Average Record
Temperature  
Mean Temperature 52 °F -  
Max Temperature 57 °F 57 °F 79 °F (1989)
Min Temperature 44 °F 35 °F 21 °F (1957)
Degree Days  
Heating Degree Days 14    
Growing Degree Days 2 (Base 50)    
Moisture  
Dew Point 38 °F    
Average Humidity 62    
Maximum Humidity 84    
Minimum Humidity 49    
Precipitation  
Precipitation 0.00 in - - ()
Sea Level Pressure  
Sea Level Pressure 29.88 in    
Wind  
Wind Speed 14 mph (NE)    
Max Wind Speed 24 mph    
Max Gust Speed 31 mph    
Visibility 10 miles    
Events      
Averages and records for this station are not official NWS values.
T = Trace of Precipitation, MM = Missing Value Source: NWS Daily Summary

Daily Weather History Graph

Daily Weather History Graph

Search for Another Location

Airport or City:

Trip Planner

Search our weather history database for the weather conditions in past years. The results will help you decide how hot, cold, wet, or windy it might be!

Date:

Astronomy

Oct. 25, 2011 Rise Set
Actual Time 7:45 AM CDT 6:16 PM CDT
Civil Twilight 7:15 AM CDT 6:46 PM CDT
Nautical Twilight 6:41 AM CDT 7:20 PM CDT
Astronomical Twilight 6:07 AM CDT 7:54 PM CDT
Moon 6:17 AM CDT 5:18 PM CDT
Length of Visible Light 11h 30m
Length of Day
10h 30m
Waning Crescent, 2% of the Moon is Illuminated
Oct 25
Waning Crescent
Oct 26
New
Nov 2
First Quarter
Nov 10
Full
Nov 18
Last Quarter

Hourly Weather History & Observations

Time (CDT) Temp. Windchill Dew Point Humidity Pressure Visibility Wind Dir Wind Speed Gust Speed Precip Events Conditions
12:12 AM 49.5 °F - 43.7 °F 81% 29.94 in 10.0 mi ENE 6.9 mph - N/A   Clear
12:33 AM 47.1 °F - 41.5 °F 81% 29.94 in 10.0 mi ENE 6.9 mph - N/A   Clear
12:53 AM 46.9 °F - 42.3 °F 84% 29.93 in 10.0 mi ENE 9.2 mph - N/A   Clear
1:13 AM 49.5 °F - 44.6 °F 83% 29.93 in 10.0 mi ENE 8.1 mph - N/A   Clear
1:33 AM 49.3 °F - 44.1 °F 82% 29.92 in 10.0 mi NE 11.5 mph - N/A   Clear
1:52 AM 49.1 °F - 43.5 °F 81% 29.90 in 10.0 mi NE 11.5 mph - N/A   Clear
2:13 AM 49.3 °F - 43.0 °F 79% 29.90 in 10.0 mi NE 12.7 mph 18.4 mph N/A   Clear
2:33 AM 47.1 °F - 40.3 °F 77% 29.89 in 10.0 mi NE 13.8 mph 19.6 mph N/A   Clear
2:52 AM 47.7 °F - 40.3 °F 76% 29.88 in 10.0 mi NE 13.8 mph - N/A   Clear
3:13 AM 49.5 °F - 40.6 °F 72% 29.87 in 10.0 mi NE 13.8 mph 23.0 mph N/A   Clear
3:33 AM 49.5 °F - 40.5 °F 71% 29.86 in 10.0 mi NE 16.1 mph 19.6 mph N/A   Clear
3:52 AM 49.5 °F - 39.9 °F 70% 29.86 in 10.0 mi NE 16.1 mph 21.9 mph N/A   Clear
4:13 AM 49.5 °F - 39.4 °F 68% 29.85 in 10.0 mi NE 15.0 mph - N/A   Clear
4:33 AM 49.5 °F - 39.2 °F 68% 29.85 in 10.0 mi NE 17.3 mph 20.7 mph N/A   Clear
4:53 AM 49.5 °F - 39.2 °F 68% 29.85 in 10.0 mi NE 15.0 mph 23.0 mph N/A   Clear
5:12 AM 49.5 °F - 38.3 °F 65% 29.85 in 10.0 mi NE 17.3 mph 23.0 mph N/A   Clear
5:33 AM 49.5 °F - 37.9 °F 65% 29.85 in 10.0 mi NE 18.4 mph 21.9 mph N/A   Clear
5:52 AM 49.5 °F - 37.4 °F 63% 29.85 in 10.0 mi NE 15.0 mph 20.7 mph N/A   Clear
6:13 AM 49.5 °F - 37.6 °F 64% 29.85 in 10.0 mi NE 16.1 mph 23.0 mph N/A   Clear
6:33 AM 49.5 °F - 37.6 °F 64% 29.86 in 10.0 mi NE 13.8 mph - N/A   Clear
6:53 AM 49.5 °F - 37.8 °F 64% 29.85 in 10.0 mi NE 17.3 mph 24.2 mph N/A   Clear
7:12 AM 47.8 °F - 36.7 °F 65% 29.84 in 10.0 mi NE 18.4 mph 23.0 mph N/A   Clear
7:32 AM 46.9 °F - 36.1 °F 66% 29.84 in 10.0 mi NE 17.3 mph 21.9 mph N/A   Clear
7:53 AM 46.9 °F - 36.1 °F 66% 29.83 in 10.0 mi NE 16.1 mph 23.0 mph N/A   Clear
8:13 AM 46.9 °F - 36.1 °F 66% 29.83 in 10.0 mi NE 18.4 mph 24.2 mph N/A   Clear
8:33 AM 47.1 °F - 36.1 °F 66% 29.83 in 10.0 mi NE 18.4 mph 24.2 mph N/A   Clear
8:53 AM 49.5 °F - 38.3 °F 65% 29.84 in 10.0 mi NE 18.4 mph 24.2 mph N/A   Clear
9:12 AM 49.5 °F - 37.6 °F 64% 29.85 in 10.0 mi NE 18.4 mph 25.3 mph N/A   Clear
9:33 AM 49.5 °F - 36.5 °F 61% 29.85 in 10.0 mi NE 20.7 mph 25.3 mph N/A   Clear
9:52 AM 49.5 °F - 35.8 °F 59% 29.86 in 10.0 mi NE 18.4 mph 27.6 mph N/A   Clear
10:13 AM 49.5 °F - 35.6 °F 59% 29.86 in 10.0 mi NE 19.6 mph 26.5 mph N/A   Clear
10:32 AM 51.4 °F - 36.7 °F 57% 29.86 in 10.0 mi NE 16.1 mph 23.0 mph N/A   Clear
10:53 AM 52.0 °F - 36.0 °F 54% 29.86 in 10.0 mi NNE 19.6 mph 25.3 mph N/A   Clear
11:13 AM 54.5 °F - 37.6 °F 53% 29.86 in 10.0 mi NE 21.9 mph 28.8 mph N/A   Clear
11:33 AM 54.5 °F - 36.9 °F 51% 29.85 in 10.0 mi NE 20.7 mph 29.9 mph N/A   Clear
11:53 AM 57.2 °F - 38.3 °F 49% 29.84 in 10.0 mi NE 21.9 mph - N/A   Clear
12:13 PM 55.6 °F - 37.4 °F 50% 29.85 in 10.0 mi NE 21.9 mph 31.1 mph N/A   Clear
12:32 PM 57.2 °F - 38.3 °F 49% 29.85 in 10.0 mi NE 20.7 mph 26.5 mph N/A   Clear
12:53 PM 57.0 °F - 38.5 °F 50% 29.84 in 10.0 mi NE 24.2 mph 27.6 mph N/A   Clear
1:13 PM 54.5 °F - 36.5 °F 51% 29.85 in 10.0 mi NNE 19.6 mph 27.6 mph N/A   Clear
1:33 PM 54.5 °F - 37.6 °F 53% 29.83 in 10.0 mi NE 19.6 mph 28.8 mph N/A   Scattered Clouds
1:52 PM 54.5 °F - 37.4 °F 52% 29.85 in 10.0 mi North 20.7 mph 27.6 mph N/A   Scattered Clouds
2:13 PM 54.5 °F - 37.2 °F 52% 29.86 in 10.0 mi NNE 18.4 mph 25.3 mph N/A   Clear
2:33 PM 54.5 °F - 36.9 °F 51% 29.87 in 10.0 mi NE 17.3 mph 26.5 mph N/A   Scattered Clouds
2:52 PM 54.5 °F - 36.9 °F 51% 29.87 in 10.0 mi NNE 18.4 mph 27.6 mph N/A   Scattered Clouds
3:33 PM 54.5 °F - 36.7 °F 51% 29.89 in 10.0 mi NE 18.4 mph 26.5 mph N/A   Scattered Clouds
3:52 PM 54.5 °F - 37.0 °F 52% 29.90 in 10.0 mi NE 16.1 mph 25.3 mph N/A   Mostly Cloudy
4:13 PM 54.5 °F - 37.4 °F 52% 29.91 in 10.0 mi NNE 19.6 mph 24.2 mph N/A   Overcast
4:32 PM 54.5 °F - 37.4 °F 52% 29.93 in 10.0 mi NNE 19.6 mph 26.5 mph N/A   Overcast
4:53 PM 53.1 °F - 35.2 °F 51% 29.93 in 10.0 mi North 16.1 mph 21.9 mph N/A   Overcast
5:13 PM 52.0 °F - 34.0 °F 50% 29.95 in 10.0 mi North 13.8 mph 23.0 mph N/A   Overcast
5:32 PM 50.9 °F - 32.7 °F 50% 29.96 in 10.0 mi North 15.0 mph 20.7 mph N/A   Overcast
5:53 PM 49.5 °F - 32.4 °F 52% 29.96 in 10.0 mi NNE 10.4 mph 17.3 mph N/A   Overcast
6:33 PM 49.5 °F - 34.7 °F 57% 29.97 in 10.0 mi NNE 10.4 mph - N/A   Mostly Cloudy
6:53 PM 46.9 °F - 34.5 °F 62% 29.98 in 10.0 mi NNE 10.4 mph - N/A   Clear
7:12 PM 44.6 °F 39.2 °F 34.5 °F 68% 29.98 in 10.0 mi NNE 10.4 mph - N/A   Scattered Clouds
7:33 PM 45.5 °F 39.9 °F 35.6 °F 68% 29.99 in 10.0 mi North 11.5 mph 18.4 mph N/A   Overcast
7:53 PM 45.5 °F 38.9 °F 34.9 °F 66% 29.99 in 10.0 mi NNE 15.0 mph - N/A   Overcast
8:12 PM 44.6 °F 38.8 °F 34.2 °F 67% 30.01 in 10.0 mi NNE 11.5 mph 21.9 mph N/A   Overcast
8:33 PM 44.6 °F 38.1 °F 34.5 °F 68% 30.01 in 10.0 mi NE 13.8 mph - N/A   Overcast
8:53 PM 44.6 °F 39.7 °F 34.7 °F 68% 30.02 in 10.0 mi NNE 9.2 mph - N/A   Overcast
9:13 PM 44.6 °F 39.7 °F 35.1 °F 69% 30.02 in 10.0 mi NNE 9.2 mph - N/A   Overcast
9:33 PM 44.6 °F 39.2 °F 35.8 °F 71% 30.03 in 10.0 mi NNE 10.4 mph - N/A   Overcast
9:53 PM 44.6 °F 40.7 °F 36.5 °F 73% 30.04 in 10.0 mi North 6.9 mph - N/A   Overcast
10:13 PM 44.6 °F 39.7 °F 36.7 °F 74% 30.04 in 10.0 mi NNE 9.2 mph - N/A   Overcast
10:33 PM 43.9 °F 39.9 °F 37.0 °F 77% 30.05 in 10.0 mi North 6.9 mph - N/A   Overcast
10:52 PM 43.7 °F 39.1 °F 37.0 °F 77% 30.04 in 10.0 mi NNE 8.1 mph - N/A   Overcast
11:13 PM 43.3 °F 39.2 °F 37.0 °F 78% 30.05 in 10.0 mi NNE 6.9 mph - N/A   Overcast
11:33 PM 43.2 °F 39.7 °F 37.4 °F 80% 30.05 in 10.0 mi North 5.8 mph - N/A   Overcast
11:52 PM 43.2 °F 39.0 °F 37.4 °F 80% 30.04 in 10.0 mi North 6.9 mph - N/A   Overcast